Regional Weather Roundup
Issued by NWS

Home | Current Version | Previous Version | Text Only | Print | Product List | Glossary Off
Versions: 1 2 3 4 5 6 7 8 9 10 11 12 13 14 15 16 17 18 19 20 21 22 23 24 25 26 27 28 29 30 31 32 33 34 35 36 37 38 39 40 41 42 43 44 45 46 47 48 49 50

000
ASUS43 KBIS 300010
RWRND

NORTH DAKOTA REGIONAL WEATHER ROUNDUP
NATIONAL WEATHER SERVICE BISMARCK ND
700 PM CDT SUN MAR 29 2015

NOTE: "FAIR" INDICATES FEW OR NO CLOUDS BELOW 12,000 FEET WITH NO
SIGNIFICANT WEATHER AND/OR OBSTRUCTIONS TO VISIBILITY.


NDZ001>003-009>011-017-300100-
NORTHWEST NORTH DAKOTA

CITY           SKY/WX    TMP DP  RH WIND       PRES   REMARKS
WILLISTON      MOSUNNY   59  33  37 W13G22    29.93F
6HR MIN TEMP:  52; 6HR MAX TEMP:  62;

MINOT          MOSUNNY   55  30  38 NW12      29.92S
MINOT AFB      SUNNY     55  34  44 NW14      29.91S
$$

NDZ018>021-031>035-040>046-300100-
SOUTHWEST NORTH DAKOTA

CITY           SKY/WX    TMP DP  RH WIND       PRES   REMARKS
BISMARCK       SUNNY     59  28  30 NW20G29   29.97S
6HR MIN TEMP:  54; 6HR MAX TEMP:  60;

DICKINSON      SUNNY     56  27  32 W12       29.96F
GARRISON         N/A     57  32  38 NW17      29.94F
6HR MIN TEMP:  51; 6HR MAX TEMP:  58;

HETTINGER ARPT MOSUNNY   58  28  32 W17       30.01F
$$

NDZ004>008-012>016-024-026-027-054-300100-
NORTHEAST NORTH DAKOTA

CITY           SKY/WX    TMP DP  RH WIND       PRES   REMARKS
GRAND FORKS    MOCLDY    52  28  39 W10       29.88S
DEVILS LAKE    PTCLDY    54  30  40 NW17      29.89S
$$

NDZ022-023-025-028>030-036>039-047>053-300100-
SOUTHEAST NORTH DAKOTA

CITY           SKY/WX    TMP DP  RH WIND       PRES   REMARKS
FARGO          CLOUDY    54  26  34 NW17      29.91S
6HR MIN TEMP:  51; 6HR MAX TEMP:  58;

JAMESTOWN      CLEAR     53  27  36 W13       29.93S
$$



USA.gov is the U.S. government's official web portal to all federal, state and local government web resources and services.